Regional Weather Roundup
Issued by NWS

Home | Current Version | Previous Version | Graphics & Text | Print | Product List | Glossary On
Versions: 1 2 3 4 5 6 7 8 9 10 11 12 13 14 15 16 17 18 19 20 21 22 23 24 25 26 27 28 29 30 31 32 33 34 35 36 37 38 39 40 41 42 43 44 45 46 47 48 49 50
000
ASUS43 KFSD 012102
RWRSD

WEATHER ROUNDUP FOR SOUTH DAKOTA
NATIONAL WEATHER SERVICE SIOUX FALLS SD
300 PM CST SUN MAR 01 2015

NOTE: "FAIR" INDICATES FEW OR NO CLOUDS BELOW 12,000 FEET WITH NO
SIGNIFICANT WEATHER AND/OR OBSTRUCTIONS TO VISIBILITY.


SDZ001>005-009-010-012>017-012200-
NORTHWEST AND NORTH CENTRAL SOUTH DAKOTA

CITY           SKY/WX    TMP DP  RH WIND       PRES   REMARKS
BUFFALO          N/A     24  10  55 NW21      30.20F WCI   9
FAITH            N/A     29   9  43 NW22      30.27R WCI  15
MOBRIDGE       PTSUNNY   30  16  56 NW18      30.27R WCI  18
$$

SDZ012>016-024>037-041>051-057-063-072>074-012200-
SOUTHWEST AND SOUTH CENTRAL SOUTH DAKOTA

CITY           SKY/WX    TMP DP  RH WIND       PRES   REMARKS
RAPID CTY ARPT SUNNY     27  14  58 N25       30.24F WCI  12
PIERRE         CLOUDY    32   8  36 NW22      30.30R WCI  19
CUSTER         SUNNY     23  -2  33 NW9       30.12F WCI  13
ELLSWORTH AFB  SUNNY     27  12  53 N22       30.25S WCI  13
PHILIP         CLOUDY    32   6  33 NW23      30.30S WCI  19
PINE RIDGE     MOSUNNY   35   7  31 W10G20    30.23F WCI  27
WINNER         CLOUDY    36   4  26 NW24G31   30.29S
$$

SDZ004>011-016>023-039-040-012200-
NORTHEAST SOUTH DAKOTA

CITY           SKY/WX    TMP DP  RH WIND       PRES   REMARKS
ABERDEEN       PTSUNNY   29  16  58 NW17      30.30R WCI  17
WATERTOWN      FLURRIES  25  16  68 W14G26    30.23S WCI  13
SISSETON         N/A     26  15  63 NW22G30   30.24R WCI  12
$$

SDZ017-020-022-023-036>040-048>070-012200-
SOUTHEAST SOUTH DAKOTA

CITY           SKY/WX    TMP DP  RH WIND       PRES   REMARKS
SIOUX FALLS    PTSUNNY   33  13  43 NW16G25   30.28S WCI  23
HURON          CLOUDY    29  19  66 NW17G24   30.31R WCI  17
MITCHELL       CLOUDY    34  10  37 NW20G29   30.32R WCI  23
YANKTON        MOSUNNY   37   9  30 NW16G29   30.32S
$$

ABBREVIATIONS USED IN REMARKS
   TC - TEMPERATURE IN CELSIUS
  WCI - WIND CHILL INDEX
   HX - HEAT INDEX
  VSB - VISIBILITY




USA.gov is the U.S. government's official web portal to all federal, state and local government web resources and services.